YAOGAN-41

Last updated on Mon Jun 22 2026 00:03:08 GMT+0000 (Coordinated Universal Time)

1 58582U 23197A 26172.55707017 -.00000364 00000+0 00000+0 0 9992 2 58582 3.1198 313.2244 0014172 193.3438 86.8902 1.00268395 9362
UTC large
Height (km)
Speed (km/s)
/
Latitude / Longitude
Inclination (degrees)
Orbital Period (minutes)
Azimuth
Elevation
Range (km)
Doppler Factor

Next 0 passes for location: London (51.5072 / 0.1276)

No passes found over London.
YAOGAN-41